Location: Burgerwiesen
(48.6500°N, 15.6167°E)
Time: 09:50:42
(UTC+00:00)

Cosmos 1892 - Pass Details

Date: 09 April 2020
Orbit: 503 x 525 km, 82.5° (Epoch: 25 May)

Event Time Altitude Azimuth Distance (km) Brightness Sun altitude
Rises 19:55:58 0° 348° (NNW) 2,674 7.2 -20.6°
Reaches altitude 10° 19:58:07 10° 347° (NNW) 1,780 6.2 -20.9°
Maximum altitude 20:02:01 76° 263° (W) 549 2.8 -21.4°
Enters shadow 20:02:35 61° 201° (SSW) 600 2.8 -21.5°
